Weather History for Altus AFB, OK

Change the Weather History Date:

Friday, December 2, 2011

  Actual Average Record
Temperature  
Mean Temperature 35 °F -  
Max Temperature 37 °F 54 °F 77 °F (2012)
Min Temperature 33 °F 33 °F 18 °F (2014)
Degree Days  
Heating Degree Days 30    
Moisture  
Dew Point 33 °F    
Average Humidity 89    
Maximum Humidity 100    
Minimum Humidity 70    
Precipitation  
Precipitation 0.06 in - - ()
Sea Level Pressure  
Sea Level Pressure 30.26 in    
Wind  
Wind Speed 11 mph (NE)    
Max Wind Speed 23 mph    
Max Gust Speed 32 mph    
Visibility 8 miles    
Events Rain    
Averages and records for this station are not official NWS values.
T = Trace of Precipitation, MM = Missing Value Source: NWS Daily Summary

Daily Weather History Graph

Daily Weather History Graph

Search for Another Location

Airport:

Trip Planner

Search our weather history database for the weather conditions in past years. The results will help you decide how hot, cold, wet, or windy it might be!

Date:

Astronomy

Dec. 02, 2011 Rise Set
Actual Time 7:26 AM CST 5:26 PM CST
Civil Twilight 6:58 AM CST 5:53 PM CST
Nautical Twilight 6:27 AM CST 6:24 PM CST
Astronomical Twilight 5:57 AM CST 6:55 PM CST
Moon 12:51 PM CST (12/2) 12:14 AM CST (12/2)
Length of Visible Light 10h 54m
Length of Day
9h 59m
First Quarter, 53% of the Moon is Illuminated
Dec 2
First Quarter
Dec 10
Full
Dec 17
Last Quarter
Dec 24
New
Jan 1
First Quarter

Hourly Weather History & Observations

Time (CST) Temp. Windchill Dew Point Humidity Pressure Visibility Wind Dir Wind Speed Gust Speed Precip Events Conditions
12:24 AM 37.4 °F 27.2 °F 28.4 °F 70% 30.44 in 10.0 mi North 19.6 mph 32.2 mph N/A   Overcast
12:55 AM 37.8 °F 26.8 °F 28.9 °F 71% 30.44 in 10.0 mi North 23.0 mph 28.8 mph N/A   Overcast
1:16 AM 37.4 °F 27.2 °F 28.4 °F 70% 30.43 in 10.0 mi North 19.6 mph - N/A   Overcast
1:55 AM 37.0 °F 27.0 °F 28.2 °F 70% 30.42 in 10.0 mi North 18.4 mph 25.3 mph N/A   Overcast
2:55 AM 36.5 °F 25.7 °F 27.7 °F 70% 30.42 in 10.0 mi North 20.7 mph - N/A   Overcast
3:55 AM 36.1 °F 25.5 °F 27.7 °F 71% 30.40 in 10.0 mi NNE 19.6 mph 26.5 mph N/A   Overcast
4:55 AM 35.6 °F 25.2 °F 27.3 °F 72% 30.40 in 10.0 mi NNE 18.4 mph - N/A   Overcast
5:55 AM 35.2 °F 25.4 °F 27.0 °F 72% 30.40 in 10.0 mi North 16.1 mph - N/A   Overcast
6:04 AM 35.6 °F 25.9 °F 26.6 °F 70% 30.40 in 10.0 mi North 16.1 mph - N/A   Light Drizzle
6:15 AM 35.6 °F 25.5 °F 26.6 °F 70% 30.41 in 10.0 mi North 17.3 mph - N/A   Overcast
6:33 AM 35.6 °F 25.9 °F 26.6 °F 70% 30.41 in 10.0 mi NNE 16.1 mph - N/A Rain Light Rain
6:55 AM 34.5 °F 26.2 °F 28.4 °F 78% 30.41 in 10.0 mi NNE 11.5 mph - 0.00 in   Light Drizzle
7:13 AM 33.8 °F 24.3 °F 28.4 °F 81% 30.40 in 10.0 mi NNE 13.8 mph - N/A   Overcast
7:55 AM 34.5 °F 25.7 °F 28.8 °F 79% 30.40 in 10.0 mi NNE 12.7 mph - 0.00 in   Overcast
8:55 AM 35.4 °F 26.4 °F 28.0 °F 75% 30.40 in 10.0 mi NNE 13.8 mph - N/A   Overcast
9:16 AM 35.6 °F 29.2 °F 28.4 °F 75% 30.43 in 10.0 mi NE 8.1 mph - N/A   Overcast
9:55 AM 36.1 °F 28.7 °F 27.9 °F 72% 30.40 in 10.0 mi NNE 10.4 mph - N/A   Overcast
10:30 AM 37.4 °F 30.8 °F 28.4 °F 70% 30.39 in 10.0 mi NE 9.2 mph - N/A   Overcast
10:55 AM 36.7 °F 31.2 °F 28.2 °F 71% 30.40 in 10.0 mi NE 6.9 mph - N/A   Overcast
11:55 AM 37.0 °F 31.6 °F 29.3 °F 74% 30.35 in 10.0 mi NE 6.9 mph - N/A   Overcast
12:55 PM 37.6 °F - 29.8 °F 74% 30.32 in 10.0 mi Calm Calm - N/A   Overcast
1:55 PM 37.6 °F 33.1 °F 30.9 °F 77% 30.28 in 10.0 mi NE 5.8 mph - N/A   Overcast
2:55 PM 37.4 °F 32.8 °F 31.3 °F 79% 30.25 in 10.0 mi NNE 5.8 mph - N/A   Overcast
3:20 PM 37.4 °F 34.9 °F 32.0 °F 81% 30.25 in 10.0 mi NE 3.5 mph - N/A   Overcast
3:55 PM 37.4 °F 33.8 °F 31.6 °F 80% 30.24 in 10.0 mi NNE 4.6 mph - N/A   Overcast
4:00 PM 37.4 °F 33.8 °F 32.0 °F 81% 30.23 in 10.0 mi NNE 4.6 mph - N/A   Overcast
4:55 PM 36.3 °F 33.7 °F 33.4 °F 89% 30.24 in 10.0 mi NNE 3.5 mph - 0.00 in   Light Drizzle
5:39 PM 35.6 °F 31.7 °F 33.8 °F 93% 30.22 in 8.0 mi NE 4.6 mph - N/A   Light Drizzle
5:55 PM 35.8 °F 33.0 °F 35.1 °F 97% 30.22 in 6.0 mi NE 3.5 mph - 0.00 in   Light Drizzle
6:01 PM 35.6 °F 31.7 °F 35.6 °F 100% 30.22 in 6.0 mi North 4.6 mph - N/A   Light Drizzle
6:07 PM 35.6 °F 32.8 °F 35.6 °F 100% 30.22 in 6.0 mi NNE 3.5 mph - N/A   Light Drizzle
6:09 PM 35.6 °F 32.8 °F 35.6 °F 100% 30.22 in 6.0 mi NNE 3.5 mph - N/A   Overcast
6:14 PM 35.6 °F - 35.6 °F 100% 30.23 in 6.0 mi Calm Calm - N/A   Overcast
6:18 PM 35.6 °F 32.8 °F 35.6 °F 100% 30.22 in 6.0 mi NE 3.5 mph - N/A   Light Drizzle
6:34 PM 35.6 °F 29.9 °F 35.6 °F 100% 30.22 in 4.0 mi ENE 6.9 mph - N/A Rain Light Rain
6:37 PM 35.6 °F 30.7 °F 35.6 °F 100% 30.22 in 4.0 mi ENE 5.8 mph - N/A   Light Drizzle
6:47 PM 35.6 °F 30.7 °F 35.6 °F 100% 30.22 in 5.0 mi ENE 5.8 mph - N/A   Overcast
6:55 PM 35.8 °F 30.9 °F 35.4 °F 99% 30.22 in 5.0 mi NE 5.8 mph - 0.00 in   Light Drizzle
7:02 PM 35.6 °F 29.2 °F 35.6 °F 100% 30.21 in 6.0 mi ENE 8.1 mph - N/A   Overcast
7:08 PM 35.6 °F 30.7 °F 35.6 °F 100% 30.21 in 7.0 mi ENE 5.8 mph - N/A   Overcast
7:28 PM 35.6 °F 31.7 °F 35.6 °F 100% 30.22 in 8.0 mi NE 4.6 mph - N/A   Overcast
7:31 PM 35.6 °F 31.7 °F 35.6 °F 100% 30.22 in 7.0 mi NE 4.6 mph - N/A   Overcast
7:37 PM 35.6 °F 31.7 °F 35.6 °F 100% 30.18 in 7.0 mi NE 4.6 mph - N/A   Overcast
7:55 PM 36.0 °F 30.3 °F 35.8 °F 99% 30.20 in 7.0 mi ENE 6.9 mph - 0.00 in   Overcast
8:03 PM 35.6 °F 31.7 °F 35.6 °F 100% 30.21 in 8.0 mi NE 4.6 mph - N/A   Drizzle
8:14 PM 35.6 °F - 35.6 °F 100% 30.21 in 9.0 mi Calm Calm - N/A   Overcast
8:27 PM 35.6 °F 32.8 °F 35.6 °F 100% 30.20 in 9.0 mi NE 3.5 mph - N/A Rain Light Rain
8:36 PM 35.6 °F 31.7 °F 35.6 °F 100% 30.19 in 8.0 mi NE 4.6 mph - N/A Rain Light Rain
8:42 PM 35.6 °F 31.7 °F 35.6 °F 100% 30.19 in 7.0 mi NNE 4.6 mph - N/A   Light Drizzle
8:55 PM 36.0 °F 33.3 °F 35.8 °F 99% 30.19 in 5.0 mi NE 3.5 mph - 0.00 in Rain Light Rain
9:01 PM 35.6 °F 31.7 °F 35.6 °F 100% 30.19 in 4.0 mi NNE 4.6 mph - N/A Rain Light Rain
9:18 PM 35.6 °F 32.8 °F 35.6 °F 100% 30.18 in 3.0 mi NE 3.5 mph - N/A Rain Light Rain
9:32 PM 35.6 °F 32.8 °F 35.6 °F 100% 30.17 in 6.0 mi NE 3.5 mph - N/A   Overcast
9:43 PM 35.6 °F - 35.6 °F 100% 30.17 in 7.0 mi Calm Calm - N/A   Overcast
9:48 PM 35.6 °F - 35.6 °F 100% 30.17 in 6.0 mi Calm Calm - N/A   Light Drizzle
9:55 PM 36.3 °F - 36.1 °F 99% 30.17 in 5.0 mi Calm Calm - 0.01 in   Light Drizzle
10:01 PM 35.6 °F 32.8 °F 35.6 °F 100% 30.16 in 4.0 mi ENE 3.5 mph - N/A   Light Drizzle
10:48 PM 37.4 °F - 37.4 °F 100% 30.14 in 6.0 mi Calm Calm - N/A   Overcast
10:55 PM 36.9 °F - 36.9 °F 100% 30.13 in 6.0 mi Calm Calm - 0.02 in   Overcast
11:01 PM 37.4 °F - 37.4 °F 100% 30.13 in 5.0 mi Calm Calm - N/A   Light Drizzle
11:09 PM 37.4 °F - 37.4 °F 100% 30.13 in 2.5 mi Calm Calm - N/A   Light Drizzle
11:15 PM 37.4 °F - 37.4 °F 100% 30.13 in 3.0 mi Calm Calm - N/A Rain Light Rain
11:45 PM 37.4 °F - 37.4 °F 100% 30.11 in 2.5 mi Calm Calm - N/A Rain Light Rain
11:48 PM 37.4 °F - 37.4 °F 100% 30.10 in 3.0 mi Calm Calm - N/A Rain Light Rain
11:55 PM 37.4 °F - 37.4 °F 100% 30.11 in 3.0 mi Calm Calm - 0.03 in Rain Light Rain